Tracking 28091 objects as of 30-Sep-2023
HD Live streaming from Space Station
objects crossing your sky now

STARLINK-2012

Track STARLINK-2012 now!
10-day predictions
STARLINK-2012 is classified as:


NORAD ID: 47635
Int'l Code: 2021-012R
Perigee: 553.4 km
Apogee: 555.3 km
Inclination: 53.1 °
Period: 95.6 minutes
Semi major axis: 6925 km
RCS: Unknown
Launch date: February 16, 2021
Source: United States (US)
Launch site: AIR FORCE EASTERN TEST RANGE (AFETR)
Your satellite tracking list
Your tracking list is empty




NASA's NSSDC Master Catalog

Two Line Element Set (TLE):
1 47635U 21012R   23272.99239769  .00024088  00000-0  16305-2 0  9990
2 47635  53.0566  19.6019 0001344  97.3334 262.7807 15.06400272146391
Source of the keplerian elements: AFSPC